This demonstration page uses our WeatherBlox Daily Observations layout. Learn more.

Left ArrowRight Arrow

44.8408, -93.29828

Hourly Observations for December 2, 2017

Temp ( °F °C ) Dew Point ( °F °C ) Humidity (%) Winds ( mph kmh ) Pressure ( in mb ) Visibility ( mi km ) Precip ( " mm )
12:53 am 00:53 Clear 35 1.7 26 -3.3 70 70 Calm 30.03 1017 10 16 0.00 0.00
1:53 am 01:53 Clear 34 1.1 25 -3.9 70 70 Calm 30.04 1017 10 16 0.00 0.00
2:53 am 02:53 Clear 33 0.6 25 -3.9 72 72 Calm 30.05 1018 10 16 0.00 0.00
3:53 am 03:53 Clear 32 0 25 -3.9 75 75 S 3 6 30.04 1017 10 16 0.00 0.00
4:53 am 04:53 Clear 32 0 25 -3.9 75 75 SSW 3 6 30.04 1017 10 16 0.00 0.00
5:53 am 05:53 Mostly Clear 31 -0.6 25 -3.9 79 79 SW 6 9 30.05 1018 10 16 0.00 0.00
6:53 am 06:53 Mostly Clear 31 -0.6 24 -4.4 76 76 SW 5 7 30.05 1018 10 16 0.00 0.00
7:53 am 07:53 Sunny 30 -1.1 23 -5 75 75 SW 6 9 30.08 1019 10 16 0.00 0.00
8:53 am 08:53 Sunny 32 0 23 -5 69 69 WSW 7 11 30.09 1019 10 16 0.00 0.00
9:53 am 09:53 Mostly Sunny 35 1.7 24 -4.4 64 64 SW 7 11 30.11 1020 10 16 0.00 0.00
10:53 am 10:53 Partly Cloudy 38 3.3 25 -3.9 60 60 WSW 5 7 30.11 1020 10 16 0.00 0.00
11:53 am 11:53 Partly Cloudy 42 5.6 25 -3.9 51 51 SW 3 6 30.10 1019 10 16 0.00 0.00
12:53 pm 12:53 Sunny 45 7.2 26 -3.3 48 48 W 5 7 30.09 1019 10 16 0.00 0.00
1:53 pm 13:53 Partly Cloudy 45 7.2 26 -3.3 48 48 WSW 6 9 30.08 1019 10 16 0.00 0.00
2:53 pm 14:53 Partly Cloudy 47 8.3 26 -3.3 44 44 WSW 5 7 30.08 1019 10 16 0.00 0.00
3:53 pm 15:53 Mostly Sunny 46 7.8 27 -2.8 47 47 SW 5 7 30.09 1019 10 16 0.00 0.00
4:53 pm 16:53 Mostly Clear 43 6.1 27 -2.8 53 53 WSW 5 7 30.10 1019 10 16 0.00 0.00
5:53 pm 17:53 Mostly Clear 42 5.6 27 -2.8 55 55 SSW 3 6 30.11 1020 10 16 0.00 0.00
6:53 pm 18:53 Mostly Clear 41 5 27 -2.8 57 57 SSW 3 6 30.11 1020 10 16 0.00 0.00
7:53 pm 19:53 Mostly Clear 39 3.9 26 -3.3 60 60 VRB 3 6 30.13 1020 10 16 0.00 0.00
8:53 pm 20:53 Mostly Clear 36 2.2 26 -3.3 67 67 Calm 30.13 1020 10 16 0.00 0.00
9:53 pm 21:53 Mostly Clear 34 1.1 26 -3.3 73 73 Calm 30.12 1020 10 16 0.00 0.00
10:53 pm 22:53 Clear 33 0.6 25 -3.9 72 72 ESE 3 6 30.12 1020 10 16 0.00 0.00
11:53 pm 23:53 Clear 31 -0.6 25 -3.9 79 79 Calm 30.12 1020 10 16 0.00 0.00

Powered by AerisWeather